Regional Weather Roundup
Issued by NWS

Home | Current Version | Previous Version | Text Only | Print | Product List | Glossary On
Versions: 1 2 3 4 5 6 7 8 9 10 11 12 13 14 15 16 17 18 19 20 21 22 23 24 25 26 27 28 29 30 31 32 33 34 35 36 37 38 39 40 41 42 43 44 45 46 47 48 49 50
000
ASUS43 KBIS 241810
RWRND

NORTH DAKOTA REGIONAL WEATHER ROUNDUP
NATIONAL WEATHER SERVICE BISMARCK ND
100 PM CDT SUN MAY 24 2015

NOTE: "FAIR" INDICATES FEW OR NO CLOUDS BELOW 12,000 FEET WITH NO
SIGNIFICANT WEATHER AND/OR OBSTRUCTIONS TO VISIBILITY.


NDZ001>003-009>011-017-241900-
NORTHWEST NORTH DAKOTA

CITY           SKY/WX    TMP DP  RH WIND       PRES   REMARKS
WILLISTON      CLOUDY    72  43  35 E13       30.00F
6HR MIN TEMP:  46; 6HR MAX TEMP:  72;

MINOT          MOSUNNY   72  45  37 E10G17    29.99F
MINOT AFB      MOSUNNY   75  46  35 E13       29.98F
$$

NDZ018>021-031>035-040>046-241900-
SOUTHWEST NORTH DAKOTA

CITY           SKY/WX    TMP DP  RH WIND       PRES   REMARKS
BISMARCK       CLOUDY    67  50  54 E13       29.99F
6HR MIN TEMP:  54; 6HR MAX TEMP:  68;

DICKINSON      CLOUDY    62  50  64 E13       29.99F
GARRISON         N/A     68  49  50 S7        30.00F
6HR MIN TEMP:  54; 6HR MAX TEMP:  68;

HETTINGER ARPT LGT RAIN  57  51  80 NE12      30.00S
$$

NDZ004>008-012>016-024-026-027-054-241900-
NORTHEAST NORTH DAKOTA

CITY           SKY/WX    TMP DP  RH WIND       PRES   REMARKS
GRAND FORKS    PTSUNNY   74  48  39 SE10      30.00F
GRND FRKS AFB  PTSUNNY   73  49  42 E5        30.00F
DEVILS LAKE    PTSUNNY   72  46  40 E12       30.00F
$$

NDZ022-023-025-028>030-036>039-047>053-241900-
SOUTHEAST NORTH DAKOTA

CITY           SKY/WX    TMP DP  RH WIND       PRES   REMARKS
FARGO          CLOUDY    68  49  50 E13       29.99F
6HR MIN TEMP:  55; 6HR MAX TEMP:  68;

JAMESTOWN      CLOUDY    68  49  50 E13G22    29.98F
$$



USA.gov is the U.S. government's official web portal to all federal, state and local government web resources and services.